| time (UTC) | temp C | wind direction | speed KPH | gust KPH | rain 1hr cm | rain 24hr cm | rain mn cm | humidity % | barometer mb |
| 20260505052048 | 13 | 348 | 1.6 | 3.2 | 0.00 | 0.00 | 0.00 | 99 | 1014.8 |
| 20260505051544 | 13 | 291 | 0.0 | 0.0 | 0.00 | 0.00 | 0.00 | 98 | 1014.4 |
| 20260505051043 | 13 | 352 | 0.0 | 0.0 | 0.00 | 0.00 | 0.00 | 97 | 1014.2 |
| 20260505050541 | 13 | 351 | 0.0 | 0.0 | 0.00 | 0.00 | 0.00 | 97 | 1014.4 |
| 20260505041508 | 15 | 352 | 0.0 | 0.0 | 0.00 | 0.00 | 0.00 | 92 | 1014.5 |
| 20260505041006 | 15 | 351 | 0.0 | 0.0 | 0.00 | 0.00 | 0.00 | 92 | 1014.5 |
| 20260505040503 | 15 | 351 | 0.0 | 0.0 | 0.00 | 0.00 | 0.00 | 91 | 1014.4 |
| 20260505040000 | 15 | 352 | 0.0 | 0.0 | 0.00 | 0.00 | 0.00 | 90 | 1014.3 |
| 20260505035455 | 15 | 352 | 0.0 | 0.0 | 0.00 | 0.00 | 0.00 | 90 | 1014.4 |
| 20260505034953 | 15 | 352 | 0.0 | 0.0 | 0.00 | 0.00 | 0.00 | 89 | 1014.4 |
| 20260505034449 | 15 | 352 | 0.0 | 0.0 | 0.00 | 0.00 | 0.00 | 89 | 1014.6 |
| 20260505033946 | 15 | 352 | 0.0 | 0.0 | 0.00 | 0.00 | 0.00 | 86 | 1014.6 |
| 20260505033443 | 15 | 352 | 0.0 | 0.0 | 0.00 | 0.00 | 0.00 | 86 | 1014.5 |
| 20260505032942 | 15 | 352 | 0.0 | 0.0 | 0.00 | 0.00 | 0.00 | 85 | 1014.4 |
| 20260505032439 | 15 | 352 | 0.0 | 0.0 | 0.00 | 0.00 | 0.00 | 84 | 1014.5 |
| 20260505031935 | 15 | 352 | 0.0 | 0.0 | 0.00 | 0.00 | 0.00 | 84 | 1014.4 |
| 20260505031432 | 15 | 352 | 0.0 | 0.0 | 0.00 | 0.00 | 0.00 | 84 | 1014.4 |
| 20260505030929 | 15 | 351 | 0.0 | 0.0 | 0.00 | 0.00 | 0.00 | 82 | 1014.4 |
| 20260505030424 | 15 | 351 | 0.0 | 0.0 | 0.00 | 0.00 | 0.00 | 83 | 1014.5 |
| 20260505025920 | 15 | 351 | 0.0 | 0.0 | 0.00 | 0.00 | 0.00 | 82 | 1014.5 |
| 20260505025418 | 16 | 351 | 0.0 | 0.0 | 0.00 | 0.00 | 0.00 | 81 | 1014.6 |
| 20260505024917 | 16 | 351 | 0.0 | 0.0 | 0.00 | 0.00 | 0.00 | 80 | 1014.7 |
| 20260505024414 | 16 | 351 | 0.0 | 0.0 | 0.00 | 0.00 | 0.00 | 80 | 1014.5 |
| 20260505023910 | 16 | 351 | 0.0 | 0.0 | 0.00 | 0.00 | 0.00 | 79 | 1014.5 |
| 20260505023408 | 16 | 351 | 0.0 | 0.0 | 0.00 | 0.00 | 0.00 | 78 | 1014.5 |
| 20260505022904 | 16 | 351 | 0.0 | 0.0 | 0.00 | 0.00 | 0.00 | 78 | 1014.4 |
| 20260505022401 | 16 | 351 | 0.0 | 0.0 | 0.00 | 0.00 | 0.00 | 76 | 1014.6 |
| 20260505021859 | 17 | 351 | 0.0 | 0.0 | 0.00 | 0.00 | 0.00 | 75 | 1014.4 |
| 20260505021355 | 17 | 351 | 0.0 | 0.0 | 0.00 | 0.00 | 0.00 | 74 | 1014.2 |
| 20260505020851 | 16 | 351 | 0.0 | 0.0 | 0.00 | 0.00 | 0.00 | 76 | 1014.2 |
| 20260505020347 | 16 | 351 | 0.0 | 0.0 | 0.00 | 0.00 | 0.00 | 74 | 1014.4 |
| 20260505015844 | 17 | 351 | 0.0 | 0.0 | 0.00 | 0.00 | 0.00 | 74 | 1014.3 |
| 20260505015341 | 17 | 351 | 0.0 | 0.0 | 0.00 | 0.00 | 0.00 | 72 | 1014.1 |
| 20260505014838 | 17 | 351 | 0.0 | 0.0 | 0.00 | 0.00 | 0.00 | 72 | 1014.0 |
| 20260505014335 | 18 | 351 | 0.0 | 0.0 | 0.00 | 0.00 | 0.00 | 71 | 1014.1 |
| 20260505013832 | 18 | 351 | 0.0 | 0.0 | 0.00 | 0.00 | 0.00 | 69 | 1014.1 |
| 20260505013329 | 18 | 352 | 0.0 | 0.0 | 0.00 | 0.00 | 0.00 | 69 | 1014.0 |
| 20260505012827 | 18 | 352 | 0.0 | 0.0 | 0.00 | 0.00 | 0.00 | 69 | 1013.7 |
| 20260505012325 | 18 | 351 | 0.0 | 0.0 | 0.00 | 0.00 | 0.00 | 66 | 1013.9 |
| 20260505011820 | 18 | 351 | 0.0 | 0.0 | 0.00 | 0.00 | 0.00 | 65 | 1013.8 |
| 20260505011318 | 18 | 351 | 0.0 | 0.0 | 0.00 | 0.00 | 0.00 | 66 | 1013.8 |
| 20260505010813 | 18 | 351 | 0.0 | 0.0 | 0.00 | 0.00 | 0.00 | 66 | 1013.7 |
| 20260505010309 | 19 | 352 | 0.0 | 0.0 | 0.00 | 0.00 | 0.00 | 65 | 1013.5 |
| 20260505005806 | 19 | 352 | 0.0 | 0.0 | 0.00 | 0.00 | 0.00 | 62 | 1013.6 |
| 20260505005304 | 19 | 351 | 0.0 | 0.0 | 0.00 | 0.00 | 0.00 | 64 | 1013.6 |
| 20260505004800 | 19 | 351 | 0.0 | 0.0 | 0.00 | 0.00 | 0.00 | 61 | 1013.7 |
| 20260505004256 | 20 | 351 | 0.0 | 0.0 | 0.00 | 0.00 | 0.00 | 61 | 1013.6 |
| 20260505003754 | 20 | 351 | 0.0 | 0.0 | 0.00 | 0.00 | 0.00 | 60 | 1013.7 |
| 20260505003251 | 20 | 351 | 0.0 | 0.0 | 0.00 | 0.00 | 0.00 | 59 | 1013.6 |
| 20260505002747 | 20 | 351 | 0.0 | 0.0 | 0.00 | 0.00 | 0.00 | 57 | 1013.6 |
| 20260505002245 | 20 | 351 | 0.0 | 0.0 | 0.00 | 0.00 | 0.00 | 58 | 1013.5 |
| 20260505001742 | 21 | 351 | 0.0 | 0.0 | 0.00 | 0.00 | 0.00 | 57 | 1013.5 |
| 20260505001240 | 21 | 350 | 0.0 | 0.0 | 0.00 | 0.00 | 0.00 | 56 | 1013.6 |
| 20260505000737 | 21 | 351 | 0.0 | 0.0 | 0.00 | 0.00 | 0.00 | 56 | 1013.5 |
| 20260505000235 | 22 | 350 | 0.0 | 0.0 | 0.00 | 0.00 | 0.00 | 53 | 1013.5 |
| 20260504235731 | 22 | 351 | 0.0 | 0.0 | 0.00 | 0.00 | 0.00 | 55 | 1013.6 |
| 20260504235227 | 22 | 350 | 0.0 | 0.0 | 0.00 | 0.00 | 0.00 | 53 | 1013.6 |
| 20260504234725 | 22 | 358 | 0.0 | 0.0 | 0.00 | 0.00 | 0.00 | 50 | 1013.7 |
| 20260504234222 | 23 | 358 | 0.0 | 0.0 | 0.00 | 0.00 | 0.00 | 49 | 1013.5 |
| 20260504233718 | 23 | 358 | 0.0 | 0.0 | 0.00 | 0.00 | 0.00 | 46 | 1013.7 |
| 20260504233214 | 23 | 358 | 0.0 | 0.0 | 0.00 | 0.00 | 0.00 | 46 | 1013.8 |
| 20260504232711 | 23 | 352 | 0.0 | 3.2 | 0.00 | 0.00 | 0.00 | 45 | 1013.9 |
| 20260504232208 | 24 | 350 | 1.6 | 9.7 | 0.00 | 0.00 | 0.00 | 44 | 1013.7 |
| 20260504231705 | 24 | 350 | 0.0 | 0.0 | 0.00 | 0.00 | 0.00 | 45 | 1013.8 |
| 20260504231201 | 24 | 344 | 0.0 | 3.2 | 0.00 | 0.00 | 0.00 | 44 | 1013.8 |
| 20260504230657 | 24 | 14 | 0.0 | 9.7 | 0.00 | 0.00 | 0.00 | 44 | 1013.8 |
| 20260504230156 | 24 | 351 | 3.2 | 3.2 | 0.00 | 0.00 | 0.00 | 44 | 1014.0 |
| 20260504225655 | 25 | 0 | 0.0 | 6.4 | 0.00 | 0.00 | 0.00 | 42 | 1013.8 |
| 20260504225150 | 25 | 358 | 0.0 | 0.0 | 0.00 | 0.00 | 0.00 | 43 | 1013.9 |
| 20260504224647 | 25 | 323 | 6.4 | 6.4 | 0.00 | 0.00 | 0.00 | 41 | 1013.8 |
| 20260504224144 | 25 | 2 | 0.0 | 0.0 | 0.00 | 0.00 | 0.00 | 43 | 1013.9 |
| 20260504223641 | 25 | 339 | 3.2 | 12.9 | 0.00 | 0.00 | 0.00 | 41 | 1014.0 |
| 20260504223136 | 26 | 276 | 6.4 | 9.7 | 0.00 | 0.00 | 0.00 | 39 | 1014.0 |
| 20260504222634 | 26 | 346 | 4.8 | 9.7 | 0.00 | 0.00 | 0.00 | 37 | 1014.2 |
| 20260504222131 | 26 | 343 | 4.8 | 9.7 | 0.00 | 0.00 | 0.00 | 39 | 1014.2 |
| 20260504221628 | 26 | 7 | 3.2 | 6.4 | 0.00 | 0.00 | 0.00 | 40 | 1014.1 |
| 20260504221125 | 25 | 283 | 9.7 | 9.7 | 0.00 | 0.00 | 0.00 | 38 | 1014.3 |
| 20260504220621 | 26 | 354 | 3.2 | 6.4 | 0.00 | 0.00 | 0.00 | 40 | 1014.1 |
| 20260504220120 | 25 | 346 | 0.0 | 3.2 | 0.00 | 0.00 | 0.00 | 42 | 1014.1 |
| 20260504215615 | 26 | 323 | 3.2 | 6.4 | 0.00 | 0.00 | 0.00 | 40 | 1014.4 |
| 20260504215113 | 26 | 328 | 6.4 | 9.7 | 0.00 | 0.00 | 0.00 | 40 | 1014.3 |
| 20260504214608 | 26 | 9 | 3.2 | 9.7 | 0.00 | 0.00 | 0.00 | 39 | 1014.3 |
| 20260504214105 | 26 | 344 | 6.4 | 9.7 | 0.00 | 0.00 | 0.00 | 38 | 1014.4 |
| 20260504213601 | 26 | 298 | 8.0 | 12.9 | 0.00 | 0.00 | 0.00 | 38 | 1014.2 |
| 20260504213058 | 26 | 346 | 4.8 | 9.7 | 0.00 | 0.00 | 0.00 | 38 | 1014.3 |
| 20260504212554 | 26 | 333 | 3.2 | 9.7 | 0.00 | 0.00 | 0.00 | 40 | 1014.0 |
| 20260504212052 | 26 | 311 | 8.0 | 12.9 | 0.00 | 0.00 | 0.00 | 38 | 1014.4 |
| 20260504211548 | 26 | 9 | 4.8 | 12.9 | 0.00 | 0.00 | 0.00 | 39 | 1014.4 |
| 20260504211045 | 26 | 344 | 6.4 | 9.7 | 0.00 | 0.00 | 0.00 | 38 | 1014.5 |
| 20260504210542 | 26 | 345 | 3.2 | 6.4 | 0.00 | 0.00 | 0.00 | 39 | 1014.4 |
| 20260504210039 | 26 | 318 | 6.4 | 9.7 | 0.00 | 0.00 | 0.00 | 39 | 1014.4 |
| 20260504205537 | 26 | 305 | 8.0 | 12.9 | 0.00 | 0.00 | 0.00 | 38 | 1014.3 |
| 20260504205035 | 26 | 326 | 11.3 | 19.3 | 0.00 | 0.00 | 0.00 | 41 | 1014.4 |
| 20260504204533 | 26 | 335 | 6.4 | 12.9 | 0.00 | 0.00 | 0.00 | 42 | 1014.4 |
| 20260504204032 | 25 | 317 | 4.8 | 12.9 | 0.00 | 0.00 | 0.00 | 40 | 1014.5 |
| 20260504203529 | 25 | 355 | 1.6 | 3.2 | 0.00 | 0.00 | 0.00 | 43 | 1014.5 |
| 20260504203026 | 26 | 6 | 3.2 | 6.4 | 0.00 | 0.00 | 0.00 | 40 | 1014.5 |
| 20260504202522 | 26 | 332 | 6.4 | 9.7 | 0.00 | 0.00 | 0.00 | 38 | 1014.5 |
| 20260504202019 | 26 | 348 | 3.2 | 6.4 | 0.00 | 0.00 | 0.00 | 36 | 1014.4 |
| 20260504201516 | 26 | 330 | 6.4 | 16.1 | 0.00 | 0.00 | 0.00 | 37 | 1014.8 |
| 20260504201014 | 26 | 285 | 14.5 | 16.1 | 0.00 | 0.00 | 0.00 | 41 | 1014.9 |
| 20260504200510 | 26 | 4 | 4.8 | 6.4 | 0.00 | 0.00 | 0.00 | 37 | 1014.7 |
| 20260504200007 | 26 | 277 | 14.5 | 19.3 | 0.00 | 0.00 | 0.00 | 38 | 1015.0 |
| 20260504195503 | 26 | 345 | 4.8 | 9.7 | 0.00 | 0.00 | 0.00 | 40 | 1015.1 |
| 20260504194959 | 26 | 8 | 4.8 | 9.7 | 0.00 | 0.00 | 0.00 | 40 | 1015.1 |
| 20260504194455 | 26 | 321 | 9.7 | 16.1 | 0.00 | 0.00 | 0.00 | 39 | 1015.0 |
| 20260504193951 | 26 | 8 | 3.2 | 9.7 | 0.00 | 0.00 | 0.00 | 41 | 1015.3 |
| 20260504193449 | 26 | 295 | 8.0 | 16.1 | 0.00 | 0.00 | 0.00 | 39 | 1015.4 |
| 20260504192947 | 26 | 336 | 6.4 | 16.1 | 0.00 | 0.00 | 0.00 | 36 | 1015.3 |
| 20260504192444 | 26 | 355 | 0.0 | 0.0 | 0.00 | 0.00 | 0.00 | 41 | 1015.5 |
| 20260504191943 | 26 | 357 | 0.0 | 0.0 | 0.00 | 0.00 | 0.00 | 39 | 1015.4 |
| 20260504191441 | 26 | 0 | 3.2 | 6.4 | 0.00 | 0.00 | 0.00 | 39 | 1015.8 |
| 20260504190936 | 26 | 1 | 0.0 | 0.0 | 0.00 | 0.00 | 0.00 | 42 | 1015.7 |
| 20260504190432 | 25 | 352 | 4.8 | 9.7 | 0.00 | 0.00 | 0.00 | 40 | 1015.8 |
| 20260504185929 | 25 | 318 | 6.4 | 12.9 | 0.00 | 0.00 | 0.00 | 44 | 1016.0 |
| 20260504185426 | 25 | 314 | 9.7 | 9.7 | 0.00 | 0.00 | 0.00 | 43 | 1015.9 |
| 20260504184922 | 26 | 351 | 6.4 | 12.9 | 0.00 | 0.00 | 0.00 | 45 | 1016.0 |
| 20260504184418 | 26 | 6 | 3.2 | 3.2 | 0.00 | 0.00 | 0.00 | 45 | 1016.0 |
| 20260504183914 | 25 | 337 | 4.8 | 6.4 | 0.00 | 0.00 | 0.00 | 45 | 1016.2 |
| 20260504183411 | 25 | 356 | 3.2 | 6.4 | 0.00 | 0.00 | 0.00 | 45 | 1016.1 |
| 20260504182909 | 25 | 310 | 8.0 | 9.7 | 0.00 | 0.00 | 0.00 | 45 | 1016.3 |
| 20260504182406 | 25 | 357 | 3.2 | 9.7 | 0.00 | 0.00 | 0.00 | 46 | 1016.3 |
| 20260504181903 | 26 | 358 | 0.0 | 0.0 | 0.00 | 0.00 | 0.00 | 46 | 1016.4 |
| 20260504181400 | 25 | 316 | 9.7 | 12.9 | 0.00 | 0.00 | 0.00 | 49 | 1016.4 |
| 20260504180859 | 25 | 342 | 9.7 | 16.1 | 0.00 | 0.00 | 0.00 | 49 | 1016.3 |
| 20260504180357 | 26 | 359 | 3.2 | 6.4 | 0.00 | 0.00 | 0.00 | 45 | 1016.4 |
| 20260504175855 | 25 | 6 | 0.0 | 0.0 | 0.00 | 0.00 | 0.00 | 45 | 1016.6 |
| 20260504175351 | 25 | 317 | 6.4 | 9.7 | 0.00 | 0.00 | 0.00 | 47 | 1016.6 |
| 20260504174849 | 25 | 337 | 6.4 | 9.7 | 0.00 | 0.00 | 0.00 | 45 | 1016.7 |
| 20260504174347 | 25 | 352 | 0.0 | 3.2 | 0.00 | 0.00 | 0.00 | 49 | 1016.6 |
| 20260504173843 | 25 | 351 | 1.6 | 6.4 | 0.00 | 0.00 | 0.00 | 45 | 1016.8 |
| 20260504173340 | 24 | 348 | 3.2 | 6.4 | 0.00 | 0.00 | 0.00 | 47 | 1016.8 |
| 20260504172837 | 25 | 353 | 0.0 | 3.2 | 0.00 | 0.00 | 0.00 | 48 | 1016.8 |
| 20260504172334 | 25 | 340 | 1.6 | 3.2 | 0.00 | 0.00 | 0.00 | 48 | 1016.8 |
| 20260504171830 | 24 | 334 | 0.0 | 0.0 | 0.00 | 0.00 | 0.00 | 49 | 1016.9 |
| 20260504171327 | 25 | 354 | 1.6 | 6.4 | 0.00 | 0.00 | 0.00 | 51 | 1017.4 |
| 20260504170824 | 25 | 28 | 0.0 | 3.2 | 0.00 | 0.00 | 0.00 | 46 | 1017.3 |
| 20260504170321 | 25 | 353 | 0.0 | 0.0 | 0.00 | 0.00 | 0.00 | 46 | 1017.4 |
| 20260504160239 | 22 | 36 | 0.0 | 3.2 | 0.00 | 0.00 | 0.00 | 54 | 1018.0 |
| 20260504150705 | 18 | 357 | 0.0 | 6.4 | 0.00 | 0.00 | 0.00 | 68 | 1018.3 |
| 20260504150202 | 18 | 343 | 4.8 | 6.4 | 0.00 | 0.00 | 0.00 | 68 | 1018.3 |
| 20260504141131 | 16 | 355 | 0.0 | 0.0 | 0.00 | 0.00 | 0.00 | 78 | 1018.6 |
| 20260504140627 | 15 | 8 | 0.0 | 0.0 | 0.00 | 0.00 | 0.00 | 78 | 1018.8 |
| 20260504140123 | 15 | 349 | 0.0 | 0.0 | 0.00 | 0.00 | 0.00 | 79 | 1018.7 |
| 20260504130551 | 11 | 349 | 0.0 | 0.0 | 0.00 | 0.00 | 0.00 | 94 | 1018.9 |
| 20260504110439 | 7 | 359 | 0.0 | 0.0 | 0.00 | 0.00 | 0.00 | 99 | 1018.3 |
| 20260504100401 | 8 | 359 | 0.0 | 0.0 | 0.00 | 0.00 | 0.00 | 99 | 1018.0 |
| 20260504081754 | 8 | 359 | 0.0 | 0.0 | 0.00 | 0.00 | 0.00 | 99 | 1017.9 |
| 20260504081251 | 8 | 359 | 0.0 | 0.0 | 0.00 | 0.00 | 0.00 | 99 | 1017.9 |
| 20260504080747 | 8 | 358 | 0.0 | 0.0 | 0.00 | 0.00 | 0.00 | 99 | 1017.8 |
| 20260504080244 | 8 | 358 | 0.0 | 0.0 | 0.00 | 0.00 | 0.00 | 99 | 1018.1 |
| 20260504070211 | 9 | 358 | 0.0 | 0.0 | 0.00 | 0.00 | 0.00 | 99 | 1018.0 |
| 20260504060132 | 10 | 358 | 0.0 | 0.0 | 0.00 | 0.00 | 0.00 | 99 | 1018.8 |